EW7541 Weather Reports


time (UTC)temp
C
wind
direction
speed
KPH
gust
KPH
rain 1hr
cm
rain 24hr
cm
rain mn
cm
humidity
%
barometer
mb
20260504081019 10 0.0 0.0 0.00 0.00 0.00 64 1008.3
20260504050019 11 0.0 0.0 0.00 0.00 0.00 60 1009.3
20260504045019 11 0.0 0.0 0.00 0.00 0.00 59 1009.5
20260504044019 11 0.0 0.0 0.00 0.00 0.00 59 1009.2
20260504043022 11 0.0 0.0 0.00 0.00 0.00 59 1009.1
20260504042023 11 0.0 0.0 0.00 0.00 0.00 59 1009.1
20260504041020 11 0.0 0.0 0.00 0.00 0.00 59 1009.3
20260504040019 11 0.0 0.0 0.00 0.00 0.00 59 1009.3
20260504035019 11 0.0 0.0 0.00 0.00 0.00 61 1009.2
20260504034019 11 0.0 0.0 0.00 0.00 0.00 62 1009.1
20260504033039 11 0.0 0.0 0.00 0.00 0.00 59 1009.1
20260504032019 11 0.0 0.0 0.00 0.00 0.00 60 1009.0
20260504031019 12 0.0 0.0 0.00 0.00 0.00 57 1009.2
20260504030019 12 0.0 0.0 0.00 0.00 0.00 58 1009.2
20260504025019 11 0.0 0.0 0.00 0.00 0.00 61 1008.9
20260504024019 11 0.0 0.0 0.00 0.00 0.00 63 1008.8
20260504023019 11 0.0 0.0 0.00 0.00 0.00 63 1008.7
20260504022019 11 0.0 0.0 0.00 0.00 0.00 62 1008.6
20260504021019 11 0.0 0.0 0.00 0.00 0.00 60 1008.2
20260504020019 11 0.0 0.0 0.00 0.00 0.00 60 1008.2
20260504015019 11 0.0 0.0 0.00 0.00 0.00 60 1008.1
20260504014019 11 0.0 0.0 0.00 0.00 0.00 60 1007.7
20260504013019 11 0.0 0.0 0.00 0.00 0.00 61 1007.6
20260504012019 11 0.0 0.0 0.00 0.00 0.00 59 1007.5
20260504011019 11 0.0 0.0 0.00 0.00 0.00 59 1007.2
20260504010019 11 0.0 0.0 0.00 0.00 0.00 59 1007.2
20260504005019 11 0.0 0.0 0.00 0.00 0.00 59 1007.1
20260504004019 11 0.0 0.0 0.00 0.00 0.00 59 1006.8
20260504003038 11 0.0 0.0 0.00 0.00 0.00 59 1006.8
20260504002019 12 0.0 0.0 0.00 0.00 0.00 60 1006.8
20260504001019 12 0.0 0.0 0.00 0.00 0.00 59 1006.8
20260504000019 12 0.0 0.0 0.00 0.00 0.00 58 1007.0
20260503235019 13 0.0 0.0 0.00 0.00 0.00 57 1006.8
20260503234019 13 0.0 0.0 0.00 0.00 0.00 54 1006.9
20260503233039 13 0.0 0.0 0.00 0.00 0.00 53 1006.9
20260503232018 13 0.0 0.0 0.00 0.00 0.00 52 1007.1
20260503231018 13 0.0 3.2 0.00 0.00 0.00 49 1007.1
20260503230018 14 0.0 0.0 0.00 0.00 0.00 50 1007.1
20260503225019 14 0.0 0.0 0.00 0.00 0.00 49 1007.1
20260503224039 15 0.0 0.0 0.00 0.00 0.00 48 1007.4
20260503223018 15 0.0 0.0 0.00 0.00 0.00 48 1007.3
20260503222019 15 0.0 3.2 0.00 0.00 0.00 47 1007.4
20260503221019 15 0.0 0.0 0.00 0.00 0.00 44 1007.4
20260503220018 15 0.0 0.0 0.00 0.00 0.00 44 1007.4
20260503215018 16 0.0 3.2 0.00 0.00 0.00 44 1007.4
20260503214039 16 0.0 0.0 0.00 0.00 0.00 44 1007.5
20260503213018 16 0.0 0.0 0.00 0.00 0.00 41 1007.7
20260503212019 15 0.0 0.0 0.00 0.00 0.00 40 1007.8
20260503211019 16 0.0 0.0 0.00 0.00 0.00 43 1007.8
20260503210019 16 0.0 3.2 0.00 0.00 0.00 41 1007.6
20260503205019 16 0.0 1.6 0.00 0.00 0.00 39 1008.0
20260503204018 16 0.0 0.0 0.00 0.00 0.00 36 1008.0
20260503203018 16 0.0 0.0 0.00 0.00 0.00 43 1008.0
20260503202038 16 0.0 0.0 0.00 0.00 0.00 43 1008.3
20260503201019 16 0.0 0.0 0.00 0.00 0.00 43 1008.5
20260503200018 16 0.0 0.0 0.00 0.00 0.00 39 1008.7
20260503195020 16 0.0 0.0 0.00 0.00 0.00 43 1009.0
20260503194019 16 0.0 1.6 0.00 0.00 0.00 43 1009.1
20260503193018 16 0.0 0.0 0.00 0.00 0.00 46 1009.2
20260503192038 16 0.0 0.0 0.00 0.00 0.00 42 1009.4
20260503191020 16 0.0 0.0 0.00 0.00 0.00 46 1009.5
20260503190020 16 0.0 8.0 0.00 0.00 0.00 47 1009.5
20260503185038 16 0.0 3.2 0.00 0.00 0.00 47 1009.6
20260503184018 16 0.0 0.0 0.00 0.00 0.00 45 1009.7
20260503183020 17 0.0 0.0 0.00 0.00 0.00 46 1009.9
20260503182020 16 0.0 0.0 0.00 0.00 0.00 47 1009.9
20260503181018 16 0.0 0.0 0.00 0.00 0.00 49 1009.9
20260503180020 16 0.0 3.2 0.00 0.00 0.00 46 1010.0
20260503175020 16 0.0 3.2 0.00 0.00 0.00 46 1009.9
20260503174020 16 0.0 0.0 0.00 0.00 0.00 46 1010.0
20260503173020 16 0.0 0.0 0.00 0.00 0.00 45 1009.9
20260503172018 15 0.0 3.2 0.00 0.00 0.00 45 1009.9
20260503171020 15 0.0 8.0 0.00 0.00 0.00 45 1010.3
20260503131020 8 0.0 0.0 0.00 0.00 0.00 73 1009.4